Regional Weather Roundup
Issued by NWS Goodland, KS

Home | Current Version | Previous Version | Graphics & Text | Print | Product List | Glossary On
Versions: 1 2 3 4 5 6 7 8 9 10 11 12 13 14 15 16 17 18 19 20 21 22 23 24 25 26 27 28 29 30 31 32 33 34 35 36 37 38 39 40 41 42 43 44 45 46 47 48 49 50
000
ASUS43 KGLD 222059
RWRGLD

GOODLAND FORECAST AREA HOURLY WEATHER ROUNDUP
NATIONAL WEATHER SERVICE GOODLAND KS
200 PM MST MON JAN 22 2018

...OFFICIAL OBSERVATIONS...

CITY           SKY/WX    TMP DP  RH WIND       PRES   REMARKS
GOODLAND KS    MIX PCPN  31  21  66 NW20      29.93R WCI  19
HILL CITY KS   MOSUNNY   36  26  67 NW24G41   29.85R
IMPERIAL NEB   SUNNY     31  19  61 NW21G28   29.92R WCI  18
MCCOOK NEB     SUNNY     33  23  66 NW20G31   29.89R
AKRON CO       SUNNY     32  20  61 NW9       29.96F
BURLINGTON CO  SUNNY     31  19  61 NW21      29.95R WCI  18
LIMON CO       SUNNY     36  17  46 N7        29.97F
$$

...UNOFFICIAL OBSERVATIONS...

CITY           SKY/WX    TMP DP  RH WIND       PRES   REMARKS
LENORA KS        N/A     32  32 100 CALM        N/A
NORTON KS      MOSUNNY   34  23  64 NW26G33   29.84
SHARON SPRINGS   N/A     34  27  74 NW17G25     N/A
KIT CARSON CO    N/A     33  17  51 MISG        N/A
$$



USA.gov is the U.S. government's official web portal to all federal, state and local government web resources and services.